Hourly Data Report for October 03, 2017

All times are specified in Local Standard Time (LST). Add 1 hour to adjust for Daylight Saving Time where and when it is observed.

LYNN LAKE
MANITOBA

56°51'50.000" N
101°04'34.000" W
356.60 m
5061645
71078
YYL

Related Data

No related data is available for this station

Download Data

Hourly Data (October 2017)
Hourly Data Report for October 3, 2017
Temp Definition
°C
Dew Point Temp Definition
°C
Rel Hum Definition
%
Wind Dir Definition
10's deg

Wind Spd Definition
km/h
Visibility Definition
km
Stn Press Definition
kPa
Hmdx Definition


Wind Chill Definition


Weather Definition


TIME
00:00 Legend Double Dagger 0.8 -1.9 82 1 22 16.1 97.72     LegendNANA
01:00 Legend Double Dagger -0.3 -2.0 88 35 9 16.1 97.76   -3 LegendNANA
02:00 Legend Double Dagger -0.9 -2.0 92 34 9 16.1 97.79   -4 LegendNANA
03:00 Legend Double Dagger -1.1 -1.9 94 31 8 16.1 97.81   -4 LegendNANA
04:00 Legend Double Dagger -1.3 -1.9 96 32 9 16.1 97.88   -5 LegendNANA
05:00 Legend Double Dagger -1.5 -1.9 97 30 9 16.1 97.91   -5 LegendNANA
06:00 Legend Double Dagger -1.1 -1.5 97 31 11 16.1 97.97   -5 LegendNANA
07:00 Legend Double Dagger -1.4 -1.7 98 31 11 16.1 97.96   -5 LegendNANA
08:00 Legend Double Dagger 0.5 -0.5 93 29 9 16.1 97.96     LegendNANA
09:00 Legend Double Dagger 3.0 0.9 86 27 9 16.1 97.99     LegendNANA
10:00 Legend Double Dagger 5.5 1.0 73 21 8 16.1 98.02     LegendNANA
11:00 Legend Double Dagger 6.8 0.5 64 27 15 16.1 97.96     LegendNANA
12:00 Legend Double Dagger 7.7 0.4 60 28 11 16.1 97.93     LegendNANA
13:00 Legend Double Dagger 8.2 0.5 58 26 15 16.1 97.85     LegendNANA
14:00 Legend Double Dagger 8.4 0.2 56 24 11 16.1 97.76     LegendNANA
15:00 Legend Double Dagger 8.7 0.3 55 23 15 16.1 97.70     LegendNANA
16:00 Legend Double Dagger 7.8 0.1 58 23 18 16.1 97.65     LegendNANA
17:00 Legend Double Dagger 7.3 0.7 63 23 13 16.1 97.58     LegendNANA
18:00 Legend Double Dagger 6.6 1.3 69 19 11 16.1 97.44     LegendNANA
19:00 Legend Double Dagger 6.3 1.4 71 19 17 16.1 97.30     LegendNANA
20:00 Legend Double Dagger 6.1 1.5 72 21 17 16.1 97.19     LegendNANA
21:00 Legend Double Dagger 6.2 0.8 68 22 26 16.1 97.11     LegendNANA
22:00 Legend Double Dagger 6.4 0.3 65 23 21 16.1 97.02     LegendNANA
23:00 Legend Double Dagger 6.3 -0.1 64 24 22 16.1 96.93     LegendNANA

Notes on Data Quality.

Legend

  • E = Estimated
  • M = Missing
  • NA = Not Available
  • ‡ = Partner data that is not subject to review by the National Climate Archives
Date modified: